Date,TemperatureHighF,TemperatureAvgF,TemperatureLowF,DewpointHighF,DewpointAvgF,DewpointLowF,HumidityHigh,HumidityAvg,HumidityLow,PressureMaxIn,PressureMinIn,WindSpeedMaxMPH,WindSpeedAvgMPH,GustSpeedMaxMPH,PrecipitationSumIn
2013-9-1,78,66,60,63,60,58,94,81,57,29.86,29.76,7,1,13,0.00
2013-9-2,80,73,66,61,60,57,80,64,50,29.89,29.82,12,2,14,0.00
2013-9-3,74,66,62,64,62,59,95,87,64,29.99,29.89,5,1,7,0.01
2013-9-4,69,65,61,63,61,59,94,87,77,30.01,29.96,10,1,13,0.01
2013-9-5,66,63,60,62,60,59,97,90,80,30.00,29.88,13,1,18,0.07
2013-9-6,71,64,61,64,62,60,99,92,78,30.08,29.89,12,2,13,0.01
2013-9-7,72,66,62,62,61,59,95,86,67,30.08,29.98,6,0,11,0.00
2013-9-8,76,66,59,67,61,58,97,84,61,30.08,29.99,8,1,11,0.00
2013-9-9,77,65,58,65,60,57,100,85,61,30.04,29.95,9,1,12,0.00
2013-9-10,77,66,57,64,61,56,98,84,64,29.97,29.85,11,2,14,0.00
2013-9-11,90,73,61,66,62,58,94,71,37,29.91,29.83,6,0,11,0.00
2013-9-12,79,68,60,64,61,59,97,81,55,29.97,29.87,7,1,10,0.00
2013-9-13,66,63,60,62,61,59,98,91,86,29.94,29.85,7,1,10,0.00
2013-9-14,68,64,61,62,61,59,94,89,81,29.85,29.71,10,1,10,0.00
2013-9-15,65,61,58,62,60,57,99,95,89,29.78,29.68,10,2,13,0.17
2013-9-16,68,62,60,61,58,54,94,87,75,29.90,29.78,18,6,22,0.01
2013-9-17,62,60,58,56,54,52,89,82,70,29.90,29.83,10,1,13,0.00
2013-9-18,67,60,56,56,54,52,93,81,61,30.04,29.91,11,1,12,0.00
2013-9-19,77,62,52,59,53,50,94,75,38,30.02,29.72,8,1,10,0.00
2013-9-20,73,63,57,59,55,51,95,77,53,29.72,29.55,14,3,25,0.07
2013-9-21,69,61,57,58,56,54,93,82,61,29.69,29.61,12,3,16,0.01
2013-9-22,61,59,56,56,54,50,93,86,70,29.68,29.54,27,9,31,0.03
2013-9-23,60,58,55,55,53,49,92,85,75,29.92,29.68,21,8,28,0.01
2013-9-24,57,54,52,53,51,50,94,91,80,29.91,29.81,9,2,14,0.01
2013-9-25,58,53,51,51,50,47,94,90,68,29.98,29.81,10,1,14,0.01
2013-9-26,62,54,47,52,50,46,98,87,65,30.08,29.98,10,1,12,0.00
2013-9-27,58,55,52,54,51,48,93,86,80,30.07,29.79,18,7,27,0.01
2013-9-28,61,57,53,59,55,50,97,93,87,29.80,29.30,26,8,29,0.18
2013-9-29,59,55,54,53,51,48,94,86,75,29.52,29.12,24,10,33,0.24
2013-9-30,57,53,50,52,49,45,94,85,71,29.87,29.37,26,11,37,0.01